Погода в Красночервонном

Россия / Ставропольский край     45°26′38″N   41°08′09″E
темп.,
°C
ветер,
м/с
пор.,
м/с
влажн.,
%
обл.,
%
осадки,
мм/ч
давл.,
гПа
погр.,
м
25 мая, ср
ср2500:00+10зюз369389 0.0 1016124
03:00+9зюз389648 0.1 1017166
06:00+9юз48925 0.0 1018225
09:00+15зюз46685 0.1 1018606
12:00+17з465326 0.8 10191684
15:00+15зсз476734 1.0 1019219
18:00+16зсз24715 0.8 1020389
21:00+11зюз33846 0.8 102127
26 мая, чт
чт2600:00+10юз338213 0.0 102129
03:00+9зюз348999 0.0 102242
06:00+10юз348355 0.0 102297
09:00+16юз44625 0.0 1022575
12:00+19зюз33485 0.0 10211840
15:00+20з224431 0.0 10202041
18:00+20зюз1257100 0.0 1019200
21:00+14юз2264100 0.0 102011
27 мая, пт
пт2700:00+13зюз2264100 0.0 101920
03:00+13зюз3468100 0.0 101985
06:00+13юз348060 0.0 1020140
09:00+16зюз47695 0.0 1020546
12:00+18з685759 0.0 10191042
15:00+20зсз686790 0.0 10181237
18:00+20зюз47715 0.1 1018829
21:00+14юз33890 0.1 101942
28 мая, сб
сб2800:00+13юз33910 0.0 101935
03:00+12ююз33920 0.0 101833
06:00+13ю23860 0.0 101889
09:00+20юв22640 0.0 1017595
12:00+23в22525 0.0 10161321
15:00+25в23490 0.0 10151568
18:00+24в23624 0.0 1014149
21:00+19вюв46780 0.0 101574
29 мая, вс
вс2900:00+17вюв34770 0.0 101452
03:00+16вюв35810 0.0 101472
06:00+16юв36740 0.0 1014132
09:00+22ююв22570 0.0 1014534
12:00+27ссз01510 0.0 10141056
15:00+28с22450 0.0 10141534
18:00+27ссв22590 0.0 1014110
21:00+21всв22620 0.0 101511